EPGD Weather Reports


time (UTC)temp
C
wind
direction
speed
KPH
gust
KPH
rain 1hr
cm
rain 24hr
cm
rain mn
cm
humidity
%
barometer
mb
20260508053503 7 40 16.1 0.0 0.00 0.00 0.00 70 1019.0
20260508050504 6 40 14.5 0.0 0.00 0.00 0.00 81 1019.0
20260508043504 6 40 16.1 0.0 0.00 0.00 0.00 81 1019.0
20260508040504 6 40 12.9 0.0 0.00 0.00 0.00 81 1019.0
20260508033504 5 2 0.0 0.0 0.00 0.00 0.00 86 1019.0
20260508030504 5 350 4.8 0.0 0.00 0.00 0.00 81 1019.0
20260508023503 5 360 9.7 0.0 0.00 0.00 0.00 81 1019.0
20260508020504 5 360 8.0 0.0 0.00 0.00 0.00 81 1019.0
20260508013504 5 360 11.3 0.0 0.00 0.00 0.00 81 1019.0
20260508010503 5 360 9.7 0.0 0.00 0.00 0.00 81 1019.0
20260508003503 5 360 9.7 0.0 0.00 0.00 0.00 81 1018.0
20260508000504 5 340 9.7 0.0 0.00 0.00 0.00 81 1018.0
20260507233503 5 340 8.0 0.0 0.00 0.00 0.00 81 1018.0
20260507230503 5 360 9.7 0.0 0.00 0.00 0.00 86 1018.0
20260507223503 5 360 12.9 0.0 0.00 0.00 0.00 86 1018.0
20260507220504 5 350 11.3 0.0 0.00 0.00 0.00 86 1018.0
20260507213503 5 360 12.9 0.0 0.00 0.00 0.00 86 1018.0
20260507210503 5 360 11.3 0.0 0.00 0.00 0.00 86 1018.0
20260507203503 5 350 9.7 0.0 0.00 0.00 0.00 86 1018.0
20260507200504 5 350 12.9 0.0 0.00 0.00 0.00 81 1017.0
20260507193503 5 360 11.3 0.0 0.00 0.00 0.00 81 1017.0
20260507190504 5 350 14.5 0.0 0.00 0.00 0.00 81 1016.0
20260507183504 6 10 11.3 0.0 0.00 0.00 0.00 70 1016.0
20260507180504 6 360 12.9 0.0 0.00 0.00 0.00 70 1016.0
20260507173504 6 30 14.5 0.0 0.00 0.00 0.00 70 1016.0
20260507170504 6 20 14.5 0.0 0.00 0.00 0.00 70 1016.0
20260507163506 6 40 12.9 0.0 0.00 0.00 0.00 75 1016.0
20260507160504 6 20 14.5 0.0 0.00 0.00 0.00 75 1016.0
20260507153504 6 20 14.5 0.0 0.00 0.00 0.00 75 1016.0
20260507150504 6 20 11.3 0.0 0.00 0.00 0.00 75 1016.0
20260507143504 6 20 20.9 0.0 0.00 0.00 0.00 81 1015.0
20260507140504 7 30 20.9 0.0 0.00 0.00 0.00 70 1015.0
20260507133503 7 10 22.5 0.0 0.00 0.00 0.00 75 1015.0
20260507130504 7 10 19.3 0.0 0.00 0.00 0.00 75 1015.0
20260507123504 7 10 19.3 0.0 0.00 0.00 0.00 81 1015.0
20260507120504 7 20 20.9 0.0 0.00 0.00 0.00 75 1014.0
20260507113504 8 360 22.5 0.0 0.00 0.00 0.00 70 1014.0
20260507110503 8 360 19.3 0.0 0.00 0.00 0.00 70 1014.0
20260507103504 7 10 20.9 0.0 0.00 0.00 0.00 75 1014.0
20260507100505 7 350 20.9 0.0 0.00 0.00 0.00 75 1013.0
20260507093503 7 350 20.9 0.0 0.00 0.00 0.00 81 1013.0
20260507090504 7 360 22.5 0.0 0.00 0.00 0.00 81 1013.0
20260507083504 7 360 20.9 0.0 0.00 0.00 0.00 81 1012.0
20260507080504 6 350 20.9 0.0 0.00 0.00 0.00 81 1012.0
20260507073504 5 360 22.5 0.0 0.00 0.00 0.00 86 1012.0
20260507070504 5 360 19.3 0.0 0.00 0.00 0.00 86 1012.0
20260507063503 5 20 20.9 0.0 0.00 0.00 0.00 93 1011.0
20260507060504 5 10 14.5 0.0 0.00 0.00 0.00 93 1011.0